Location: ?astrovice
(49.6513°N, 14.9287°E)
Time: 16:15:15
(UTC+00:00)

FO-99 - Pass Details

Date: 29 October 2021
Orbit: 469 x 501 km, 97.2° (Epoch: 30 November)

Event Time Altitude Azimuth Distance (km) Brightness Sun altitude
Exits shadow 18:01:11 11° 5° (N) 1,688 ? -22.9°
Drops below altitude 10° 18:01:17 10° 4° (N) 1,726 ? -22.9°
Sets 18:03:29 0° 355° (N) 2,617 ? -23.2°
